Regional Weather Roundup
Issued by NWS Lake Charles, LA

Home | Current Version | Previous Version | Text Only | Print | Product List | Glossary On
Versions: 1 2 3 4 5 6 7 8 9 10 11 12 13 14 15 16 17 18 19 20 21 22 23 24 25 26 27 28 29 30 31 32 33 34 35 36 37 38 39 40 41 42 43 44 45 46 47 48 49
000
ASUS44 KLCH 110910
RWRLCH
REGIONAL WEATHER ROUNDUP
NATIONAL WEATHER SERVICE LAKE CHARLES LA
300 AM CST THU FEB 11 2016

Note: "fair" indicates few or no clouds below 12,000 feet with no
significant weather and/or obstructions to visibility.


ACROSS SOUTHEAST TEXAS

CITY           SKY/WX    TMP DP  RH WIND       PRES   REMARKS
BEAUMONT       CLEAR     52  51  97 SW6       30.17F
BEAUMONT CITY  FAIR      54  51  91 SW7       30.17S
ORANGE         SUNNY     58  52  80 SW9G20    30.18S
JASPER         CLEAR     44  43  97 CALM      30.17S FOG
$$

ACROSS CENTRAL LOUISIANA

CITY           SKY/WX    TMP DP  RH WIND       PRES   REMARKS
LEESVILLE      CLEAR     50  48  93 S6        30.15S FOG
FULLERTON      FAIR      48  44  86 VRB6      30.12F
ALEXANDRIA INT PTCLDY    49  45  86 SW8       30.13F
ESLER FIELD    PTCLDY    50  44  80 SW7       30.13F
DERIDDER         N/A     49  48  95 SW6       30.17S
OAKDALE          N/A     49  48  95 S5        30.16F
OPELOUSAS      FAIR      48  45  88 SW6       30.17F
$$

ACROSS SOUTHWEST AND SOUTH CENTRAL LOUISIANA

CITY           SKY/WX    TMP DP  RH WIND       PRES   REMARKS
SULPHUR        SUNNY     49  48  99 MISG      30.17F
LAKE CHARLES   CLEAR     53  51  93 SW6       30.17F
CHENNAULT INT  CLEAR     51  50  97 SW7       30.17F
CAMERON PHI    SUNNY     59  55  88 SW9       30.20F
DEQUINCY       FAIR      46  46 100 CALM      30.17S
JENNINGS       FAIR      52  48  87 SW5       30.17F
LAFAYETTE      PTCLDY    49  44  83 S7        30.18F
NEW IBERIA     CLEAR     45  43  93 SW5       30.20F
ABBEVILLE      FAIR      53  49  87 SW7       30.18F
PATTERSON      CLEAR     48  43  81 SW3       30.21F
SALT POINT       N/A     53  49  86 VRB3      30.19F
$$

SELECTED SITES ACROSS THE REGION

CITY           SKY/WX    TMP DP  RH WIND       PRES   REMARKS
HOUSTON BUSH   CLEAR     59  48  67 SW10G20   30.17S
HOUSTON HOBBY  PTCLDY    51  49  92 SW6       30.17F
GALVESTON      CLEAR     59  57  93 SW12      30.19F
COLLEGE STAT   CLEAR     50  40  68 SW7       30.14F
CONROE         PTCLDY    55  45  68 SW12G17   30.16S
HUNTSVILLE     PTCLDY    55  41  59 SW8       30.13F
LUFKIN         PTCLDY    50  43  77 SW7       30.12F
SHREVEPORT     PTCLDY    53  40  61 SW15      30.05F
MONROE         CLEAR     47  32  56 SW8       30.09S
NATCHEZ MS     CLEAR     48  37  66 SW9       30.14F
BATON ROUGE    PTCLDY    49  41  74 SW10      30.18F
N.O. INTL ARPT CLEAR     45  38  76 S8        30.21S
SLIDELL        PTCLDY    48  39  71 SW5       30.21S
$$

MARINE REPORTS

STATION/POSITION TIME  SKY/WX   TEMP    WIND        PRES    VSBY
                                AIR SEA DIR/SP/G
                 (UTC)          (F)     (DEG/KT/KT) (MB)    (MI)
BUOY 30 S HIGH I 0850            60 58  230/ 12/ 12 1022.0F
WVE H/P(F/S)=  2/ 4

SEA RIM ST PARK  0900            59     220/ 10/ 12 1022.2F
PORT ARTHUR      0800               55  220/ 10/ 13 1022.0F
SABINE PASS N    0800            58 55  210/  6/  9 1023.3F
TEXAS POINT      NOT AVBL
CALCASIEU PASS   0800            59 57  230/ 12/ 14 1021.1F
LK CHARLES BEACH 0800            55 55              1022.3F
MARSH ISLAND     NOT AVBL
FRESH WATER LOCK 0800            58 52  200/ 10/ 13 1022.7F
AMERADA PASS     0800            53 49  190/  4/  7 1023.1F
$$




USA.gov is the U.S. government's official web portal to all federal, state and local government web resources and services.